User: anonymous   Login
Location: Bukit Nyuki
(2.5885°N, 113.7476°E)
Time: 23:36:58
(UTC+00:00)
Language:

Cosmos 1627 Rocket - Orbit

View from above orbital plane
View from above orbital plane
View from above satellite
View from above satellite

Ground track
Ground track

The orbit data is extracted from the following two-line orbital elements,

1 15506U 85011B   21204.57958417  .00000096  00000-0  82786-4 0  9997
2 15506  82.9185 266.6040 0036505 179.6471 290.4726 13.76217026831085
Epoch (UTC): 23 July 2021 13:54:36
Eccentricity: 0.0036505
inclination: 82.9185°
perigee height: 950 km
apogee height: 1004 km
right ascension of ascending node: 266.6040°
argument of perigee: 179.6471°
revolutions per day: 13.76217026
mean anomaly at epoch: 290.4726°
orbit number at epoch: 83108

The dashed part of the orbit path shows where the satellite is in the earth's shadow,  

DLR